Temp
69 68 67 65 68 69 70 69 69 71 75 76 76 77 74 75 69 66 65 69 72 76 81 76 80 84 82 80 81 80 79 70 68 75 75 72 70 60 57 58 59 59 59 59 58 56 56 56 57 59 60 61 61 61 60 59 58 57 59 61 61 60 59 57 56 60 62 65 64 61 60 58 58 58
68 67 67 68 67 72 72 68 69 71 74 75 76 77 78 76 72 69 67 68 74 75 80 80 78 82 82 81 79 80 80 65 72 77 78 74 72 58 56 56 55 56 57 56 55 53 55 56 58 61 60 61 60 58 58 57 56 57 59 62 62 59 59 58 57 60 61 62 62 60 59 58 58 58
68 67 66 67 66 73 70 69 67 68 71 73 75 70 76 76 75 72 73 68 73 78 72 79 82 81 82 83 80 80 80 69 74 77 76 79 65 58 60 55 56 56 55 54 54 55 55 55 56 58 60 60 59 58 58 57 57 58 60 59 59 60 59 59 58 60 62 62 62 61 59 59 59 59
67 66 65 67 68 73 72 70 67 65 68 71 75 76 77 76 75 72 70 70 70 73 72 77 80 82 80 82 81 79 80 73 67 79 77 75 60 68 68 55 56 56 55 54 55 58 56 53 56 58 58 58 59 59 59 58 58 58 57 56 57 58 58 58 58 60 62 62 62 62 60 60 60 59
67 66 66 67 69 74 73 72 70 67 68 70 71 77 76 74 72 72 71 69 70 73 73 72 79 80 82 81 83 80 78 74 77 74 79 72 73 73 73 67 55 54 54 53 53 54 53 52 57 58 57 58 57 58 56 56 56 55 54 54 54 54 56 58 57 58 60 61 61 60 60 60 59 59
67 66 66 67 70 74 73 71 72 71 67 67 65 69 72 70 70 72 72 72 70 69 73 72 80 78 81 78 83 79 76 74 77 79 79 77 78 77 76 73 67 53 54 53 52 53 53 52 53 54 52 53 53 54 53 52 52 54 52 49 50 54 55 57 57 56 57 58 59 59 59 59 59 59
68 67 67 70 71 71 71 71 70 69 67 67 67 67 68 70 70 71 76 72 70 70 72 75 74 77 78 77 79 83 80 77 79 79 79 78 79 80 78 77 75 54 53 51 52 52 52 52 52 51 52 51 51 52 52 51 51 50 51 49 50 50 51 52 53 54 56 57 58 57 57 57 58 59
66 66 68 69 69 69 66 66 66 67 67 66 66 67 69 70 70 70 70 71 72 72 71 75 78 79 76 79 81 85 83 79 78 79 80 81 80 81 81 81 79 61 52 52 53 52 53 51 51 51 51 51 51 50 50 51 50 49 50 50 50 49 49 49 49 49 52 54 56 56 56 56 58 60
64 65 65 69 70 67 65 66 67 68 67 67 66 69 72 72 73 72 71 71 72 70 70 73 77 78 77 80 81 84 82 79 80 80 80 80 80 80 82 82 83 60 52 53 53 52 52 51 51 50 50 50 50 50 50 50 50 50 50 50 49 49 48 48 48 49 49 49 49 53 55 55 57 59
65 65 66 68 67 65 66 66 66 70 67 70 71 71 72 73 73 71 71 65 70 71 71 72 73 76 76 77 78 84 81 79 77 78 80 81 81 80 78 80 81 71 66 64 61 55 54 52 51 51 51 50 49 49 50 50 50 50 50 49 49 49 49 48 48 48 47 48 48 49 51 53 54 56
67 67 67 66 67 66 68 67 67 67 69 70 71 70 69 70 66 64 65 68 65 66 71 73 74 77 79 78 76 83 83 81 79 75 75 75 80 79 78 76 80 73 70 64 57 60 60 59 59 53 50 50 50 50 50 50 50 50 49 49 48 49 48 48 48 48 48 48 48 47 47 48 51 54
69 66 65 67 67 67 69 66 65 69 70 70 69 68 68 67 65 65 67 66 66 68 70 67 72 76 77 78 79 82 82 78 78 79 76 73 74 76 77 77 77 74 72 71 70 61 59 59 58 53 51 51 50 50 50 50 51 50 50 49 48 48 48 48 48 48 48 48 47 47 46 46 46 50
69 69 67 67 71 70 67 62 64 65 65 69 66 66 65 64 63 64 70 68 67 67 64 67 72 74 74 74 74 75 76 75 74 77 77 75 76 77 76 78 80 80 74 74 75 72 69 70 68 69 67 65 56 55 51 56 52 50 49 48 48 48 48 48 48 48 48 48 47 47 46 46 46 45
65 67 68 69 65 60 61 58 54 54 55 59 65 66 65 63 63 63 66 68 69 65 65 65 64 70 71 73 72 73 75 76 77 76 75 74 76 76 75 75 77 80 79 76 75 76 75 73 72 73 71 73 66 67 62 63 63 56 49 49 49 48 48 47 47 47 47 47 47 46 46 46 46 44
64 65 67 68 66 63 61 62 51 51 50 49 50 53 56 57 62 65 64 69 65 68 69 68 67 69 67 71 74 74 76 76 75 75 75 75 74 73 71 69 72 79 78 76 75 76 76 75 75 76 76 75 73 72 72 58 56 54 50 49 49 48 48 47 47 46 46 46 46 46 46 46 46 44
65 64 64 65 66 65 67 69 65 56 50 47 47 49 50 50 45 49 65 69 68 69 70 68 66 67 68 70 72 73 74 73 73 74 74 74 73 72 72 73 72 77 78 76 74 74 78 77 77 76 78 79 71 65 51 48 49 48 48 48 48 47 47 46 46 46 46 45 45 45 44 44 44 43
63 63 64 64 64 66 61 64 67 66 62 52 48 49 48 48 48 45 44 51 68 73 70 68 65 65 63 62 64 68 67 71 70 71 72 73 74 73 72 73 73 75 76 75 73 73 76 78 75 75 78 68 62 58 50 47 48 48 47 47 47 46 46 46 46 46 45 45 45 45 44 44 44 43
65 64 63 62 61 63 63 63 64 65 64 63 61 61 64 66 56 45 42 43 45 60 71 70 67 66 66 63 64 64 67 67 67 68 70 73 73 72 72 73 73 75 77 74 73 71 75 78 75 73 77 72 65 63 51 48 48 49 48 47 47 47 47 46 46 46 45 44 45 45 44 44 43 43
66 66 65 63 62 62 62 62 61 63 64 65 64 65 67 69 69 70 68 68 70 69 70 72 71 68 67 67 67 67 67 67 69 68 65 69 74 74 73 74 73 74 78 76 73 69 75 77 74 74 69 61 59 57 49 49 48 48 48 47 47 46 46 46 45 45 45 45 45 44 44 43 43 42
67 66 63 62 62 63 63 57 49 54 62 65 64 64 65 68 69 59 45 41 45 59 69 72 72 70 61 57 68 68 69 69 66 70 72 72 68 65 66 68 68 70 74 75 73 71 73 77 72 72 63 63 61 63 60 48 49 48 48 47 47 47 46 46 46 46 45 46 45 45 44 44 43 43
67 67 65 64 63 63 62 55 48 48 51 63 64 66 66 69 66 61 54 43 40 41 41 41 41 40 42 43 43 46 51 61 66 68 65 65 67 65 64 63 65 68 71 69 70 71 70 67 71 67 67 67 64 63 60 58 48 47 47 47 47 47 47 46 46 45 46 45 45 45 45 44 44 43
62 63 61 63 62 61 61 51 48 46 53 62 64 65 64 62 64 62 61 59 51 41 42 42 42 42 41 43 44 43 48 51 60 66 62 63 65 61 58 55 59 64 63 61 63 68 67 70 70 66 67 67 66 63 62 60 53 46 46 46 47 47 46 46 46 46 46 46 46 46 45 45 43 54
61 60 59 57 58 60 57 48 46 48 54 65 64 60 61 63 65 63 62 61 59 60 60 59 59 55 54 61 61 56 47 51 60 69 69 68 65 63 58 57 58 57 57 59 61 63 64 66 65 65 61 59 63 63 58 57 56 56 57 53 51 46 47 47 47 47 46 45 45 45 45 43 46 60
60 60 59 52 42 44 49 47 46 47 46 57 61 63 62 62 65 66 64 64 64 64 64 63 64 63 64 64 64 65 64 63 62 63 64 65 62 60 62 59 57 56 56 56 54 59 62 63 60 61 60 56 51 60 62 60 60 62 63 63 62 49 45 46 46 43 45 45 44 44 44 42 47 58
57 57 55 53 41 39 42 43 44 47 45 44 56 61 66 65 66 61 66 63 57 66 64 64 64 64 65 65 65 65 65 65 65 64 64 65 64 61 58 57 54 51 52 52 48 59 58 60 58 57 53 55 58 60 63 66 69 68 67 66 65 65 65 64 58 53 45 43 42 42 42 43 42 49
50 49 47 47 41 38 40 40 40 40 43 45 59 56 47 48 50 64 66 67 66 65 65 65 65 65 66 66 65 65 64 64 64 64 63 62 62 63 62 60 60 55 51 55 48 59 58 58 59 54 55 56 59 62 61 63 67 68 68 68 65 63 63 65 65 62 58 57 57 51 47 43 44 43
44 44 45 44 39 38 39 39 40 41 43 46 48 43 45 46 48 55 65 66 66 66 67 65 65 65 65 64 64 63 62 62 62 62 62 62 60 57 57 57 60 59 59 60 61 61 59 59 60 58 58 60 58 60 60 60 62 67 67 67 64 65 65 64 63 63 63 60 53 42 42 41 41 42
42 43 42 41 39 39 39 39 39 39 40 42 40 41 43 46 52 64 66 66 67 64 64 63 62 61 62 61 60 58 59 59 59 58 58 58 57 57 56 56 56 57 58 59 60 61 62 61 58 58 59 59 59 58 59 64 62 61 62 64 64 63 63 63 64 61 61 62 58 58 58 54 51 51
41 39 38 39 39 40 40 40 41 41 40 40 40 41 44 48 54 57 58 57 57 55 53 53 53 53 54 54 55 58 58 58 58 57 56 57 57 57 56 56 57 57 58 59 59 59 58 57 58 59 59 59 58 58 59 58 59 60 60 59 59 59 62 63 62 62 61 60 58 57 56 55 53 53
40 39 39 39 40 40 41 43 43 42 41 40 40 41 44 47 47 48 49 50 49 49 49 49 49 50 52 53 54 55 55 55 54 55 55 55 55 55 54 54 54 55 56 57 58 59 59 59 58 57 56 57 57 56 57 57 57 61 59 60 60 59 63 62 60 60 57 56 57 56 55 54 51 52
43 42 41 40 40 40 39 40 40 41 41 42 43 43 44 44 44 44 45 45 44 45 47 47 47 48 50 52 52 51 50 50 52 55 54 54 53 53 53 52 50 51 53 55 56 57 59 58 57 57 55 57 58 56 56 57 57 60 62 61 59 54 58 58 58 56 56 56 56 56 56 56 54 52
42 42 41 41 41 41 41 41 41 41 40 40 40 42 42 43 43 43 44 44 44 45 46 45 44 45 45 45 46 47 47 47 48 51 52 53 52 53 53 50 48 50 51 52 54 56 52 56 55 56 56 54 53 56 58 57 58 59 59 58 57 59 57 55 55 55 55 55 55 54 54 54 54 54
40 39 39 38 38 38 37 37 38 39 39 39 39 40 40 41 41 41 41 41 42 43 43 42 43 44 45 44 46 46 46 46 47 49 51 51 51 53 53 50 49 50 50 51 52 53 55 55 56 56 57 57 57 56 56 55 59 59 57 56 55 55 56 56 55 54 56 54 53 53 52 53 54 54
38 37 35 35 35 35 35 35 35 35 36 36 36 36 37 38 38 39 39 40 40 40 40 41 41 41 42 43 45 45 45 46 47 48 46 49 50 48 49 49 49 51 51 51 52 54 54 55 56 56 57 57 57 54 53 53 55 58 57 56 54 53 54 54 54 55 54 54 52 51 52 52 53 54
37 37 36 35 34 34 34 34 34 34 34 34 35 35 36 36 36 36 38 39 39 40 40 40 40 40 40 40 41 41 43 44 46 47 49 51 51 51 50 50 50 51 52 51 52 54 56 56 56 53 54 54 52 53 50 50 54 55 56 55 55 53 53 53 53 54 54 54 54 47 49 51 52 53
37 38 36 36 35 34 34 33 34 34 34 34 34 34 35 34 34 35 36 38 39 38 39 39 40 40 40 40 41 42 43 44 45 47 46 48 48 49 51 51 50 52 53 53 54 55 56 56 57 54 49 48 46 45 47 48 47 53 52 50 54 53 53 53 53 54 54 53 52 50 45 43 50 52
38 37 36 36 35 35 34 34 34 34 34 34 34 34 34 34 35 36 38 38 39 39 40 40 41 41 41 42 42 42 43 44 41 43 45 48 49 49 47 47 48 52 52 53 55 55 56 54 55 53 51 49 48 43 44 44 45 47 52 51 48 53 52 52 52 51 53 52 52 51 48 44 47 51
40 39 37 37 36 36 35 35 35 34 34 35 35 35 36 37 38 39 41 40 39 40 40 41 41 41 43 43 42 43 43 44 45 45 46 48 47 46 47 45 50 52 52 52 54 55 55 54 53 52 52 45 47 45 43 46 47 47 45 51 48 45 51 48 48 48 49 53 51 51 51 48 48 51
43 41 40 39 38 38 37 37 36 36 37 37 37 37 38 39 39 40 41 41 41 42 42 42 43 43 43 44 46 46 46 45 45 46 46 45 48 48 48 48 48 50 52 51 54 54 55 53 52 52 51 48 43 46 48 47 43 48 44 43 50 47 48 46 48 51 51 47 51 53 53 52 46 39
45 45 44 43 42 41 39 39 39 39 39 39 40 40 40 40 40 40 41 42 42 41 41 43 43 43 43 46 45 46 45 45 45 46 44 46 47 47 48 48 49 46 45 48 49 53 51 49 49 50 50 50 47 47 51 52 51 50 48 42 39 46 45 45 46 48 48 51 52 46 49 49 47 48
47 46 45 45 44 43 42 42 42 41 41 41 42 41 41 42 41 41 42 43 42 44 44 43 44 43 45 46 45 47 45 45 46 46 44 46 46 46 44 42 49 50 48 47 48 50 48 50 47 39 47 51 49 52 50 47 45 45 46 47 41 39 41 43 49 49 45 49 51 49 48 47 47 47
48 46 46 46 45 45 44 44 45 44 44 43 43 42 43 42 41 40 42 41 42 43 45 45 46 46 46 47 48 47 47 47 47 47 47 48 48 48 48 49 49 50 49 48 45 48 52 53 49 49 53 49 51 48 46 45 45 47 48 48 46 39 36 37 39 41 48 45 47 46 46 47 48 45
47 47 46 46 46 46 46 46 46 46 45 44 44 42 43 43 44 44 45 45 45 46 46 47 47 48 48 49 49 48 48 47 46 47 46 48 48 48 47 48 48 48 50 48 50 47 49 51 54 50 48 50 49 49 45 45 46 47 47 48 45 46 45 38 37 37 37 37 39 41 47 45 44 42
47 47 48 48 48 48 48 48 48 47 47 42 46 46 46 46 46 46 46 46 46 46 47 47 48 48 47 49 49 49 49 48 48 47 47 47 47 48 47 48 48 48 51 51 50 50 51 51 50 50 49 48 48 48 45 45 47 47 48 47 48 48 46 47 45 40 40 39 36 36 33 34 38 39
48 48 49 49 49 49 49 49 48 49 48 47 47 47 47 47 46 46 46 46 46 47 46 47 48 48 49 49 49 48 48 47 48 49 49 49 49 49 49 50 49 48 49 49 49 48 49 49 50 50 49 48 49 47 47 47 47 46 47 46 45 48 50 47 46 45 46 46 40 33 36 35 35 34
MSLP
1015.19 1015.55 1015.95 1016.03 1015.95 1016.31 1016.43 1016.23 1016.27 1016.35 1015.79 1015.55 1015.51 1015.67 1016.15 1015.95 1017.23 1017.99 1018.15 1017.51 1017.19 1016.87 1016.51 1017.35 1016.99 1016.63 1017.15 1017.55 1017.87 1018.27 1018.59 1019.31 1019.71 1019.87 1019.99 1020.47 1021.03 1021.55 1021.83 1022.07 1022.27 1022.55 1022.79 1023.07 1023.27 1023.47 1023.59 1023.75 1023.91 1024.07 1024.19 1024.39 1024.55 1024.71 1024.91 1025.07 1025.19 1025.35 1025.39 1025.51 1025.59 1025.67 1025.71 1025.75 1025.71 1025.71 1025.67 1025.59 1025.59 1025.71 1025.79 1025.91 1025.95 1025.99
1014.95 1015.23 1015.63 1015.59 1015.79 1015.67 1015.91 1016.15 1016.07 1016.31 1015.91 1015.71 1015.59 1015.39 1015.31 1015.59 1016.39 1016.83 1017.35 1017.39 1016.55 1016.63 1015.99 1016.27 1016.99 1016.63 1016.99 1017.35 1017.79 1018.07 1018.23 1019.11 1019.31 1019.47 1019.55 1019.95 1020.47 1021.19 1021.63 1021.91 1022.15 1022.43 1022.67 1022.91 1023.15 1023.35 1023.55 1023.71 1023.83 1023.95 1024.11 1024.27 1024.43 1024.63 1024.79 1024.99 1025.11 1025.23 1025.31 1025.39 1025.43 1025.55 1025.63 1025.67 1025.67 1025.67 1025.67 1025.67 1025.67 1025.71 1025.75 1025.79 1025.83 1025.87
1014.79 1014.91 1015.07 1015.07 1015.67 1015.27 1015.67 1015.95 1016.03 1016.07 1016.03 1015.79 1015.47 1015.91 1015.43 1015.43 1015.63 1016.03 1016.15 1017.27 1016.51 1016.07 1016.95 1016.23 1016.15 1016.55 1016.71 1017.03 1017.47 1017.87 1018.03 1018.83 1018.95 1019.11 1019.31 1019.35 1020.03 1020.87 1021.39 1021.75 1021.99 1022.27 1022.51 1022.79 1023.07 1023.27 1023.47 1023.63 1023.75 1023.83 1023.99 1024.11 1024.31 1024.47 1024.63 1024.83 1024.95 1025.07 1025.15 1025.23 1025.31 1025.39 1025.47 1025.51 1025.55 1025.55 1025.51 1025.51 1025.51 1025.51 1025.51 1025.55 1025.59 1025.59
1014.59 1014.75 1014.87 1014.79 1015.07 1014.83 1015.19 1015.59 1015.87 1015.91 1015.95 1015.87 1015.39 1015.19 1015.15 1015.35 1015.39 1015.75 1016.27 1016.71 1016.99 1016.55 1016.87 1016.39 1016.23 1016.23 1016.63 1016.91 1017.23 1017.71 1017.95 1018.55 1018.75 1018.71 1019.07 1019.15 1019.91 1020.55 1020.99 1021.55 1021.79 1022.07 1022.35 1022.63 1022.87 1023.11 1023.31 1023.51 1023.63 1023.75 1023.87 1023.99 1024.15 1024.31 1024.43 1024.59 1024.75 1024.83 1024.95 1025.03 1025.11 1025.15 1025.23 1025.27 1025.35 1025.31 1025.31 1025.27 1025.27 1025.27 1025.27 1025.31 1025.35 1025.39
1014.15 1014.27 1014.39 1014.43 1014.59 1014.43 1014.75 1014.91 1015.19 1015.43 1015.43 1015.55 1015.71 1014.95 1015.03 1015.27 1015.51 1015.63 1016.11 1016.71 1016.95 1016.67 1016.47 1016.71 1016.23 1016.27 1016.27 1016.83 1016.71 1017.39 1017.79 1018.47 1018.51 1018.51 1018.67 1019.31 1019.63 1019.99 1020.31 1020.95 1021.51 1021.79 1022.11 1022.39 1022.67 1022.91 1023.15 1023.35 1023.47 1023.55 1023.67 1023.83 1023.95 1024.11 1024.23 1024.35 1024.51 1024.59 1024.71 1024.79 1024.87 1024.95 1024.99 1025.03 1025.07 1025.11 1025.07 1025.07 1025.07 1025.11 1025.11 1025.11 1025.15 1025.19
1013.83 1013.91 1014.19 1014.19 1014.19 1014.11 1014.35 1014.67 1014.67 1014.87 1015.23 1015.63 1016.43 1015.67 1015.31 1015.23 1015.51 1015.31 1015.79 1016.11 1016.55 1016.99 1016.59 1016.87 1015.95 1016.39 1016.11 1016.87 1016.39 1016.91 1017.67 1018.27 1018.27 1018.39 1018.47 1018.95 1019.07 1019.39 1019.59 1020.19 1020.91 1021.43 1021.75 1022.07 1022.39 1022.63 1022.87 1023.11 1023.23 1023.35 1023.51 1023.63 1023.79 1023.91 1024.07 1024.19 1024.31 1024.39 1024.51 1024.59 1024.67 1024.71 1024.79 1024.79 1024.83 1024.87 1024.87 1024.91 1024.91 1024.95 1024.91 1024.91 1024.91 1024.95
1013.35 1013.63 1013.95 1013.87 1013.79 1013.91 1014.07 1014.19 1014.35 1014.63 1015.03 1015.39 1015.79 1016.23 1015.91 1015.19 1015.19 1015.47 1015.27 1015.75 1016.39 1016.63 1016.51 1016.19 1016.59 1016.19 1016.27 1016.43 1016.55 1016.31 1017.03 1017.71 1017.87 1018.15 1018.15 1018.47 1018.71 1018.79 1019.03 1019.35 1019.91 1020.87 1021.31 1021.71 1021.99 1022.31 1022.55 1022.79 1022.99 1023.15 1023.27 1023.43 1023.59 1023.71 1023.87 1023.99 1024.11 1024.19 1024.27 1024.39 1024.47 1024.51 1024.55 1024.59 1024.59 1024.59 1024.67 1024.67 1024.71 1024.71 1024.71 1024.71 1024.71 1024.71
1013.15 1013.43 1013.47 1013.51 1013.71 1013.87 1014.27 1014.39 1014.39 1014.63 1014.83 1015.39 1016.03 1016.19 1015.71 1015.55 1015.75 1015.91 1015.71 1015.83 1015.75 1015.99 1016.47 1015.79 1015.75 1015.75 1016.19 1016.11 1015.95 1015.59 1016.31 1017.23 1017.59 1017.67 1017.79 1017.83 1018.15 1018.31 1018.55 1018.71 1019.03 1020.03 1020.67 1021.11 1021.51 1021.87 1022.19 1022.43 1022.67 1022.87 1023.03 1023.23 1023.35 1023.51 1023.59 1023.71 1023.83 1023.95 1024.03 1024.11 1024.19 1024.27 1024.31 1024.35 1024.39 1024.47 1024.51 1024.51 1024.47 1024.47 1024.47 1024.51 1024.51 1024.47
1013.03 1013.27 1013.27 1013.07 1013.27 1013.75 1014.23 1014.19 1014.23 1014.31 1014.71 1014.99 1015.31 1015.35 1014.95 1014.75 1014.75 1015.07 1015.47 1015.59 1015.59 1015.99 1016.23 1015.79 1015.15 1015.19 1015.87 1015.87 1015.47 1015.15 1016.03 1016.87 1017.15 1017.31 1017.47 1017.67 1017.79 1017.99 1018.03 1018.31 1018.27 1019.27 1020.11 1020.51 1020.95 1021.35 1021.71 1022.07 1022.35 1022.55 1022.75 1022.95 1023.03 1023.15 1023.23 1023.35 1023.51 1023.63 1023.71 1023.83 1023.95 1024.03 1024.11 1024.19 1024.19 1024.23 1024.27 1024.31 1024.35 1024.39 1024.35 1024.39 1024.35 1024.31
1012.87 1012.99 1012.91 1012.87 1013.07 1013.67 1013.91 1014.03 1013.91 1013.75 1014.35 1014.39 1014.19 1014.43 1014.59 1014.51 1014.55 1014.79 1015.03 1016.15 1015.75 1015.55 1015.87 1015.71 1015.55 1015.07 1015.67 1015.79 1015.67 1014.79 1015.67 1016.39 1017.03 1017.11 1017.11 1017.19 1017.43 1017.71 1018.03 1018.03 1018.11 1019.03 1019.99 1020.55 1020.95 1021.19 1021.43 1021.71 1021.95 1022.19 1022.35 1022.51 1022.67 1022.79 1022.91 1023.03 1023.15 1023.27 1023.43 1023.55 1023.71 1023.79 1023.83 1023.87 1023.91 1023.99 1024.07 1024.11 1024.15 1024.23 1024.23 1024.19 1024.19 1024.19
1012.39 1012.59 1012.75 1013.07 1013.15 1013.23 1012.99 1013.03 1013.31 1013.63 1013.67 1013.67 1013.87 1014.03 1014.43 1014.71 1014.99 1015.23 1015.87 1015.83 1016.23 1016.35 1015.75 1015.43 1015.31 1014.83 1014.63 1014.91 1015.87 1014.87 1015.15 1015.79 1016.35 1016.91 1017.19 1017.39 1017.11 1017.35 1017.75 1018.19 1018.03 1018.79 1019.47 1019.79 1020.03 1020.39 1020.71 1020.99 1021.47 1021.63 1021.87 1022.03 1022.19 1022.39 1022.51 1022.67 1022.83 1022.95 1023.15 1023.31 1023.35 1023.43 1023.47 1023.59 1023.71 1023.79 1023.83 1023.87 1023.95 1023.99 1024.07 1024.07 1024.07 1023.99
1011.75 1012.19 1012.55 1012.67 1012.79 1012.75 1012.67 1012.87 1013.27 1013.03 1013.07 1013.15 1013.51 1013.75 1014.15 1014.63 1014.91 1015.35 1015.43 1015.43 1015.91 1015.67 1015.51 1015.67 1015.47 1014.83 1014.63 1014.87 1015.27 1014.91 1015.11 1015.91 1016.11 1016.19 1016.71 1017.39 1017.31 1017.35 1017.43 1017.71 1018.03 1018.51 1019.03 1019.59 1020.03 1020.23 1020.51 1020.75 1020.95 1021.19 1021.47 1021.67 1021.79 1021.91 1022.15 1022.31 1022.47 1022.63 1022.79 1022.87 1022.99 1023.11 1023.31 1023.39 1023.47 1023.59 1023.67 1023.75 1023.79 1023.79 1023.79 1023.79 1023.79 1023.79
1011.47 1011.63 1011.95 1012.15 1011.99 1011.99 1011.95 1012.15 1012.15 1012.19 1012.39 1012.83 1013.43 1013.75 1014.11 1014.43 1014.83 1015.35 1014.79 1014.71 1014.99 1015.35 1015.83 1015.83 1015.07 1014.95 1015.07 1015.31 1015.43 1015.51 1015.55 1015.91 1016.03 1015.87 1016.11 1016.79 1016.87 1016.95 1017.35 1017.47 1017.47 1017.67 1018.51 1018.87 1019.11 1019.55 1019.87 1020.19 1020.39 1020.67 1020.91 1020.91 1021.27 1021.51 1021.79 1021.83 1022.07 1022.23 1022.35 1022.55 1022.79 1022.95 1023.07 1023.23 1023.39 1023.43 1023.51 1023.51 1023.51 1023.55 1023.55 1023.55 1023.59 1023.59
1011.39 1011.35 1011.43 1011.47 1011.55 1011.91 1012.15 1012.07 1012.19 1012.31 1012.47 1012.67 1012.91 1013.39 1013.79 1014.23 1015.03 1015.51 1014.99 1014.51 1014.47 1015.03 1015.39 1015.87 1016.31 1015.39 1015.39 1015.27 1015.39 1015.51 1015.31 1015.31 1015.43 1015.71 1016.03 1016.59 1016.55 1016.75 1017.03 1017.19 1017.19 1017.15 1017.43 1018.03 1018.51 1018.55 1018.87 1019.31 1019.59 1019.75 1019.95 1019.79 1020.23 1020.51 1021.07 1021.23 1021.19 1021.55 1022.07 1022.31 1022.51 1022.75 1022.95 1023.07 1023.15 1023.19 1023.23 1023.27 1023.31 1023.35 1023.35 1023.31 1023.31 1023.35
1011.15 1011.19 1011.19 1011.27 1011.39 1011.63 1011.83 1011.95 1012.11 1012.23 1012.39 1012.63 1013.03 1013.35 1013.67 1014.15 1014.95 1015.31 1015.23 1014.35 1014.67 1014.79 1014.87 1015.11 1015.71 1015.51 1015.95 1015.31 1014.99 1015.27 1015.19 1015.11 1015.39 1015.67 1015.83 1016.19 1016.31 1016.71 1017.11 1017.59 1017.07 1016.43 1016.91 1017.51 1017.99 1017.99 1017.99 1018.51 1018.83 1018.91 1018.99 1019.03 1019.07 1019.51 1019.87 1020.19 1020.99 1021.39 1021.75 1022.11 1022.43 1022.63 1022.75 1022.87 1022.95 1023.03 1023.07 1023.15 1023.15 1023.15 1023.15 1023.15 1023.15 1023.19
1010.99 1011.23 1011.39 1011.47 1011.51 1011.55 1011.55 1011.59 1011.95 1012.15 1012.31 1012.55 1012.95 1013.43 1013.59 1013.71 1014.35 1014.47 1014.55 1014.19 1014.47 1014.39 1014.43 1014.79 1015.27 1015.51 1015.43 1015.31 1015.07 1015.11 1015.15 1015.31 1015.59 1015.59 1015.67 1015.95 1016.23 1016.55 1016.71 1016.51 1016.71 1016.03 1016.19 1017.11 1017.63 1017.79 1017.35 1017.83 1018.07 1018.23 1018.11 1018.07 1018.71 1019.63 1020.15 1020.59 1021.03 1021.51 1021.83 1022.11 1022.35 1022.55 1022.71 1022.79 1022.91 1022.95 1023.03 1023.07 1023.11 1023.11 1023.11 1023.07 1023.07 1023.07
1011.07 1011.19 1011.31 1011.43 1011.51 1011.51 1011.63 1011.71 1011.63 1011.75 1011.91 1012.31 1012.95 1013.15 1013.15 1013.55 1013.83 1013.87 1014.03 1013.87 1013.63 1013.63 1014.07 1014.51 1015.03 1015.15 1015.59 1015.91 1015.95 1015.59 1015.55 1015.35 1015.67 1015.71 1015.79 1015.75 1015.87 1016.15 1016.43 1016.47 1016.51 1016.15 1015.95 1016.71 1017.39 1017.75 1017.27 1017.11 1017.87 1018.11 1017.79 1018.83 1019.47 1020.23 1020.43 1020.75 1021.19 1021.59 1021.95 1022.15 1022.39 1022.55 1022.71 1022.79 1022.83 1022.87 1022.91 1022.91 1022.91 1022.95 1022.99 1022.95 1022.95 1022.99
1011.11 1011.11 1011.19 1011.31 1011.35 1011.31 1011.47 1011.51 1011.55 1011.47 1011.55 1011.95 1012.67 1013.31 1013.59 1013.67 1013.51 1013.51 1013.63 1013.71 1013.75 1013.63 1013.75 1014.19 1014.71 1014.95 1015.19 1015.47 1015.43 1015.51 1015.63 1015.87 1015.95 1016.03 1016.03 1015.55 1015.75 1015.99 1016.15 1016.11 1016.35 1016.31 1016.15 1016.71 1017.11 1017.55 1017.27 1016.91 1017.63 1018.11 1017.83 1018.47 1019.43 1019.99 1020.51 1020.67 1021.03 1021.31 1021.67 1021.99 1022.19 1022.35 1022.43 1022.51 1022.63 1022.71 1022.79 1022.87 1022.95 1022.91 1022.91 1022.87 1022.83 1022.83
1010.75 1010.83 1010.87 1010.87 1010.91 1011.03 1011.31 1011.47 1011.55 1011.59 1011.63 1011.83 1012.15 1012.55 1012.79 1012.59 1012.59 1012.75 1013.15 1013.39 1013.47 1013.67 1013.67 1013.79 1014.11 1014.51 1014.75 1015.03 1015.19 1015.11 1015.19 1015.59 1015.59 1015.83 1016.59 1016.23 1015.47 1015.47 1015.87 1015.99 1016.35 1016.55 1016.27 1016.51 1016.87 1017.55 1016.95 1016.59 1017.47 1017.75 1018.63 1019.43 1019.91 1020.39 1020.59 1020.55 1020.83 1021.23 1021.63 1021.99 1022.23 1022.31 1022.47 1022.59 1022.71 1022.83 1022.91 1022.91 1022.87 1022.87 1022.79 1022.79 1022.75 1022.71
1010.63 1010.87 1010.99 1010.91 1010.87 1010.99 1011.23 1011.31 1011.51 1011.63 1011.67 1011.95 1012.23 1012.35 1012.59 1012.35 1012.27 1013.19 1014.15 1014.19 1014.03 1013.59 1013.39 1013.43 1013.71 1014.11 1014.71 1014.75 1014.79 1014.87 1014.95 1015.15 1015.47 1015.43 1015.51 1015.59 1015.83 1016.75 1016.83 1016.71 1016.67 1016.75 1016.51 1016.51 1016.91 1017.15 1016.91 1016.39 1017.31 1017.75 1018.83 1019.11 1019.95 1020.15 1020.63 1020.95 1020.99 1021.35 1021.63 1021.91 1022.15 1022.35 1022.47 1022.59 1022.71 1022.79 1022.83 1022.83 1022.79 1022.75 1022.71 1022.67 1022.63 1022.55
1010.39 1010.51 1010.63 1010.63 1010.59 1010.79 1011.19 1011.59 1011.87 1011.83 1011.99 1012.11 1012.31 1012.27 1012.19 1011.87 1012.31 1013.07 1014.03 1014.39 1014.27 1014.15 1014.07 1014.11 1014.27 1014.63 1014.83 1014.91 1014.91 1014.99 1015.15 1015.43 1015.63 1015.51 1015.79 1016.11 1016.07 1016.43 1016.83 1017.07 1016.99 1016.75 1016.79 1017.19 1017.11 1016.99 1017.31 1017.59 1017.51 1018.23 1018.87 1019.15 1019.67 1020.11 1020.75 1021.11 1021.27 1021.35 1021.59 1021.79 1021.99 1022.15 1022.27 1022.39 1022.47 1022.59 1022.63 1022.63 1022.59 1022.55 1022.55 1022.55 1022.55 1022.39
1010.51 1010.39 1010.39 1010.35 1010.59 1011.11 1011.55 1011.47 1011.43 1011.91 1011.95 1011.99 1011.87 1011.83 1011.95 1012.23 1012.23 1012.79 1013.43 1013.99 1014.71 1014.79 1014.71 1014.67 1014.67 1014.79 1014.99 1015.11 1015.27 1015.43 1015.35 1015.43 1015.19 1015.59 1016.03 1016.27 1016.51 1016.83 1017.11 1017.71 1017.75 1017.15 1017.55 1018.11 1018.03 1017.43 1017.59 1017.47 1017.79 1018.51 1018.83 1019.03 1019.43 1019.95 1020.55 1020.87 1021.43 1021.71 1021.71 1021.71 1021.79 1021.95 1022.03 1022.11 1022.27 1022.39 1022.47 1022.51 1022.51 1022.51 1022.47 1022.47 1022.43 1022.07
1010.63 1010.43 1010.27 1010.35 1010.59 1010.79 1010.83 1010.95 1011.03 1011.03 1011.15 1011.19 1011.19 1011.91 1011.99 1011.91 1011.99 1012.51 1013.15 1013.59 1014.07 1014.39 1014.59 1014.83 1014.91 1015.19 1015.23 1015.19 1015.43 1015.63 1015.67 1015.71 1015.43 1015.39 1015.51 1015.75 1016.23 1016.67 1017.03 1017.35 1017.15 1017.67 1018.31 1018.63 1018.55 1017.95 1018.11 1018.11 1018.47 1018.59 1019.15 1019.71 1019.43 1019.59 1020.31 1020.71 1021.11 1021.43 1021.51 1021.71 1021.83 1021.79 1021.91 1021.95 1022.11 1022.35 1022.47 1022.55 1022.59 1022.59 1022.55 1022.47 1022.31 1021.83
1010.63 1010.67 1010.79 1011.31 1011.95 1011.83 1011.11 1010.83 1010.79 1010.87 1011.19 1011.35 1011.51 1011.75 1011.91 1011.91 1011.83 1012.35 1012.99 1013.15 1013.27 1013.59 1013.75 1014.11 1014.39 1014.75 1014.99 1015.19 1015.39 1015.59 1015.79 1015.95 1016.07 1016.11 1016.07 1016.03 1016.23 1016.55 1016.75 1017.19 1017.35 1017.75 1018.55 1019.19 1019.03 1018.27 1018.27 1018.39 1018.95 1019.07 1019.35 1019.75 1020.03 1019.63 1019.91 1020.27 1020.55 1020.63 1020.71 1020.99 1021.19 1021.71 1021.99 1022.07 1022.23 1022.43 1022.51 1022.55 1022.59 1022.59 1022.63 1022.67 1022.27 1021.99
1011.31 1011.47 1011.95 1012.47 1012.99 1012.55 1011.91 1011.51 1011.59 1011.63 1011.55 1011.39 1011.51 1011.71 1011.43 1011.43 1011.43 1012.23 1012.55 1012.99 1012.99 1013.23 1013.67 1014.03 1014.31 1014.55 1014.75 1015.03 1015.31 1015.55 1015.75 1015.99 1016.19 1016.39 1016.47 1016.43 1016.59 1016.95 1017.27 1017.39 1017.95 1018.79 1019.31 1019.47 1019.47 1018.79 1018.79 1018.83 1019.15 1019.79 1020.39 1020.31 1019.75 1019.67 1019.47 1019.39 1019.47 1019.79 1020.15 1020.67 1020.95 1021.11 1021.35 1021.35 1021.67 1022.35 1022.63 1022.67 1022.71 1022.71 1022.83 1022.83 1022.71 1022.59
1012.83 1013.07 1013.43 1013.59 1013.51 1012.99 1012.43 1012.15 1012.03 1011.99 1011.79 1011.71 1011.55 1011.67 1011.59 1011.79 1011.91 1012.27 1012.35 1012.59 1012.95 1013.27 1013.55 1013.75 1014.03 1014.31 1014.51 1014.79 1015.19 1015.55 1015.87 1016.15 1016.39 1016.55 1016.79 1017.03 1017.15 1017.27 1017.47 1017.51 1017.39 1018.39 1019.47 1019.43 1019.43 1019.07 1019.03 1018.99 1019.19 1019.95 1020.23 1020.19 1019.59 1019.35 1019.35 1019.47 1019.63 1019.75 1019.99 1020.27 1020.75 1021.31 1021.39 1021.27 1021.23 1021.55 1021.95 1022.19 1022.39 1022.63 1022.79 1022.79 1022.79 1022.95
1014.23 1014.07 1014.03 1014.19 1013.91 1013.43 1013.15 1012.95 1012.91 1012.83 1012.75 1012.71 1012.79 1012.23 1011.79 1011.83 1011.99 1012.11 1012.23 1012.43 1012.75 1012.91 1013.15 1013.59 1013.95 1014.27 1014.63 1015.03 1015.39 1015.71 1016.15 1016.55 1016.79 1016.95 1017.15 1017.35 1017.71 1018.03 1018.19 1018.23 1018.19 1018.55 1018.95 1019.11 1019.19 1019.11 1019.03 1019.07 1019.31 1019.43 1019.47 1019.39 1019.55 1019.59 1019.71 1019.87 1019.83 1019.67 1019.87 1020.23 1020.91 1021.03 1021.11 1021.23 1021.31 1021.27 1021.31 1021.79 1022.63 1022.91 1022.87 1022.95 1023.11 1023.23
1015.27 1014.75 1014.51 1014.39 1014.19 1014.31 1014.19 1013.71 1013.43 1013.55 1013.59 1013.55 1013.23 1012.91 1012.95 1012.79 1012.35 1012.03 1012.11 1012.27 1012.43 1012.71 1013.15 1013.71 1014.35 1014.79 1015.15 1015.63 1016.19 1016.63 1016.91 1017.19 1017.39 1017.59 1017.79 1018.03 1018.27 1018.47 1018.63 1018.79 1018.99 1019.19 1019.35 1019.39 1019.39 1019.31 1019.11 1019.15 1019.63 1019.83 1019.79 1019.79 1019.79 1019.83 1019.79 1019.55 1020.03 1020.39 1020.39 1020.47 1020.91 1021.03 1021.31 1021.31 1021.11 1021.39 1021.51 1021.75 1022.15 1022.35 1022.43 1022.83 1023.15 1023.27
1016.59 1015.95 1015.15 1014.67 1014.55 1014.47 1014.55 1014.31 1013.91 1013.99 1014.27 1014.07 1013.71 1013.71 1013.67 1013.79 1013.59 1013.19 1013.27 1013.55 1013.67 1014.19 1014.99 1015.67 1016.15 1016.59 1016.91 1017.11 1017.27 1017.31 1017.39 1017.59 1017.79 1018.07 1018.31 1018.43 1018.63 1018.83 1018.95 1019.15 1019.35 1019.55 1019.63 1019.67 1019.71 1019.75 1019.83 1019.87 1019.87 1020.03 1020.15 1020.23 1020.31 1020.27 1020.27 1020.35 1020.55 1020.43 1020.63 1021.07 1021.03 1021.39 1021.35 1021.19 1021.39 1021.51 1021.75 1021.99 1022.23 1022.51 1022.71 1022.91 1023.23 1023.43
1016.91 1016.71 1015.91 1015.19 1015.07 1015.07 1015.03 1014.91 1014.71 1014.83 1015.03 1014.83 1014.63 1014.71 1014.71 1014.75 1015.03 1014.87 1014.95 1015.11 1015.23 1015.79 1016.23 1016.59 1016.91 1017.23 1017.43 1017.59 1017.83 1018.03 1018.07 1018.19 1018.47 1018.55 1018.59 1018.71 1018.95 1019.11 1019.31 1019.55 1019.83 1019.91 1020.03 1020.03 1020.03 1020.11 1020.15 1020.27 1020.39 1020.55 1020.71 1020.67 1020.67 1020.67 1020.75 1020.91 1020.71 1020.39 1020.67 1020.83 1021.11 1021.31 1020.95 1021.47 1021.79 1022.07 1022.43 1022.63 1022.59 1022.83 1023.03 1023.27 1023.59 1023.67
1017.15 1017.19 1016.83 1016.11 1015.79 1015.87 1015.91 1015.95 1015.71 1015.35 1015.23 1015.35 1015.59 1015.75 1015.99 1016.03 1016.27 1016.27 1016.31 1016.55 1016.83 1017.03 1017.11 1017.31 1017.55 1017.79 1017.95 1018.03 1018.19 1018.51 1018.79 1019.03 1019.11 1018.99 1019.03 1019.07 1019.31 1019.51 1019.71 1019.87 1020.19 1020.43 1020.59 1020.55 1020.51 1020.47 1020.47 1020.55 1020.59 1020.71 1020.79 1020.55 1020.47 1020.67 1020.91 1021.03 1020.87 1020.43 1020.27 1020.67 1021.15 1021.63 1021.55 1022.11 1022.35 1022.71 1022.99 1022.99 1022.83 1022.91 1022.99 1023.11 1023.35 1023.51
1018.03 1017.63 1017.15 1016.67 1016.47 1016.47 1016.47 1016.63 1016.51 1016.19 1016.23 1016.51 1016.67 1016.87 1016.99 1017.23 1017.27 1017.27 1017.27 1017.35 1017.63 1017.95 1017.99 1018.11 1018.27 1018.47 1018.59 1018.87 1019.11 1019.27 1019.43 1019.63 1019.71 1019.47 1019.35 1019.23 1019.35 1019.47 1019.71 1020.15 1020.51 1020.63 1020.79 1020.79 1020.79 1020.75 1020.79 1020.83 1020.75 1020.71 1020.91 1021.11 1021.23 1021.03 1020.99 1020.99 1020.67 1020.43 1020.79 1021.07 1021.43 1021.55 1022.07 1022.63 1022.87 1022.99 1023.15 1023.03 1022.91 1022.91 1023.07 1023.15 1023.19 1023.31
1018.35 1018.11 1017.91 1017.83 1017.83 1017.91 1017.91 1017.95 1017.87 1017.47 1017.19 1017.51 1017.83 1017.99 1018.07 1018.15 1018.11 1018.19 1018.31 1018.47 1018.71 1018.79 1018.67 1018.79 1018.91 1018.95 1018.99 1019.23 1019.43 1019.67 1019.91 1020.11 1020.11 1019.79 1019.63 1019.59 1019.47 1019.35 1019.51 1020.07 1020.35 1020.47 1020.63 1020.79 1020.87 1020.95 1020.99 1021.03 1021.03 1021.03 1021.15 1021.35 1021.47 1021.47 1021.31 1020.95 1020.47 1020.71 1021.19 1021.63 1022.11 1022.23 1022.35 1022.75 1023.03 1023.19 1023.07 1023.07 1022.99 1022.91 1023.11 1023.23 1023.27 1023.27
1019.43 1019.59 1019.67 1019.67 1019.59 1019.39 1019.23 1019.15 1019.03 1018.83 1018.67 1018.67 1018.83 1019.15 1019.11 1018.95 1018.83 1018.99 1019.27 1019.51 1019.67 1019.59 1019.55 1019.63 1019.71 1019.75 1019.67 1019.87 1020.07 1020.19 1020.31 1020.35 1020.15 1020.03 1019.91 1019.95 1019.83 1019.87 1020.07 1020.31 1020.47 1020.55 1020.63 1020.83 1020.91 1020.91 1021.03 1021.15 1021.35 1021.39 1021.51 1021.63 1021.79 1022.07 1022.07 1021.75 1021.31 1021.11 1021.51 1022.11 1022.55 1022.67 1022.67 1022.95 1023.11 1023.19 1023.19 1023.11 1023.19 1023.15 1022.91 1022.99 1023.15 1023.19
1020.15 1020.35 1020.43 1020.55 1020.47 1020.43 1020.15 1020.03 1020.07 1019.95 1019.79 1019.79 1019.79 1019.95 1019.99 1019.91 1019.95 1020.07 1020.15 1020.27 1020.27 1020.11 1020.07 1020.11 1020.27 1020.39 1020.51 1020.67 1020.71 1020.71 1020.71 1020.63 1020.51 1020.39 1020.31 1020.27 1020.23 1020.27 1020.35 1020.47 1020.51 1020.55 1020.63 1020.83 1020.99 1020.99 1020.83 1020.83 1020.99 1021.43 1021.47 1021.59 1021.99 1022.27 1022.67 1022.79 1022.19 1021.71 1021.91 1022.23 1022.59 1022.95 1023.07 1023.19 1023.23 1023.19 1023.11 1022.99 1023.03 1023.31 1023.19 1022.99 1023.11 1023.27
1020.87 1020.95 1021.07 1021.11 1021.15 1021.03 1020.87 1020.87 1020.79 1020.71 1020.71 1020.67 1020.67 1020.63 1020.55 1020.71 1020.83 1020.87 1021.03 1021.11 1021.07 1021.03 1020.91 1020.95 1021.07 1021.19 1021.23 1021.31 1021.27 1021.15 1021.03 1020.91 1020.83 1020.75 1020.67 1020.67 1020.67 1020.55 1020.47 1020.51 1020.51 1020.55 1020.59 1020.63 1020.71 1020.79 1020.75 1020.59 1020.51 1020.63 1021.31 1021.79 1022.31 1022.67 1022.79 1023.03 1022.99 1022.79 1022.55 1022.63 1022.79 1023.07 1023.23 1023.27 1023.23 1023.15 1023.03 1023.11 1023.11 1023.31 1023.47 1023.47 1023.19 1023.43
1021.23 1021.39 1021.47 1021.55 1021.55 1021.51 1021.47 1021.47 1021.43 1021.39 1021.35 1021.31 1021.27 1021.23 1021.19 1021.23 1021.35 1021.43 1021.59 1021.55 1021.63 1021.55 1021.43 1021.35 1021.47 1021.55 1021.63 1021.63 1021.59 1021.43 1021.31 1021.23 1021.27 1021.15 1021.07 1020.95 1020.91 1020.91 1020.95 1020.91 1020.71 1020.63 1020.67 1020.79 1020.75 1020.71 1020.75 1020.83 1020.87 1020.95 1020.91 1020.83 1021.31 1022.79 1023.35 1023.55 1023.43 1023.35 1023.07 1023.15 1023.27 1023.15 1023.31 1023.23 1023.19 1023.15 1023.07 1023.15 1023.23 1023.35 1023.51 1023.47 1023.43 1023.51
1021.39 1021.51 1021.67 1021.75 1021.87 1021.91 1021.95 1021.91 1021.87 1021.83 1021.83 1021.83 1021.79 1021.71 1021.67 1021.71 1021.71 1021.71 1021.67 1021.79 1021.83 1021.75 1021.71 1021.63 1021.63 1021.67 1021.67 1021.63 1021.59 1021.51 1021.39 1021.35 1021.31 1021.27 1021.15 1021.07 1021.11 1021.15 1021.11 1020.99 1020.79 1020.67 1020.83 1021.03 1020.99 1020.99 1020.99 1021.03 1021.19 1021.35 1021.39 1021.75 1021.51 1022.31 1023.27 1023.39 1023.43 1023.63 1023.67 1023.43 1023.51 1023.59 1023.35 1023.35 1023.23 1023.27 1023.35 1023.19 1023.39 1023.39 1023.43 1023.47 1023.43 1023.83
1021.35 1021.47 1021.63 1021.75 1021.91 1022.07 1022.19 1022.23 1022.23 1022.23 1022.19 1022.15 1022.11 1022.07 1022.03 1021.95 1021.91 1021.87 1021.83 1021.83 1021.79 1021.75 1021.71 1021.67 1021.71 1021.71 1021.71 1021.59 1021.47 1021.31 1021.31 1021.35 1021.43 1021.47 1021.43 1021.35 1021.31 1021.35 1021.35 1021.27 1021.27 1021.11 1020.99 1020.87 1020.83 1020.99 1021.03 1021.39 1021.63 1021.75 1021.91 1021.99 1022.31 1022.47 1022.27 1022.67 1023.91 1023.79 1023.91 1023.79 1023.71 1023.67 1023.31 1023.35 1023.35 1023.19 1023.19 1023.39 1023.31 1023.23 1023.19 1023.51 1023.91 1024.19
1021.47 1021.47 1021.55 1021.63 1021.87 1022.07 1022.23 1022.31 1022.35 1022.35 1022.27 1022.15 1022.11 1022.07 1022.11 1022.15 1022.11 1022.07 1022.07 1022.03 1021.99 1021.91 1021.83 1021.83 1021.79 1021.79 1021.79 1021.79 1021.75 1021.67 1021.63 1021.63 1021.63 1021.71 1021.75 1021.75 1021.63 1021.55 1021.55 1021.55 1021.51 1021.59 1021.39 1021.35 1020.95 1020.99 1021.83 1022.47 1022.67 1022.67 1022.59 1022.63 1022.75 1022.71 1022.63 1022.51 1022.95 1023.51 1023.71 1023.83 1023.91 1023.91 1023.87 1023.71 1023.63 1023.51 1023.31 1023.35 1023.31 1023.19 1023.15 1023.27 1023.59 1023.95
1021.51 1021.55 1021.67 1021.71 1021.87 1022.03 1022.23 1022.31 1022.35 1022.35 1022.35 1022.27 1022.23 1022.19 1022.23 1022.35 1022.39 1022.35 1022.23 1022.11 1022.03 1022.03 1022.07 1022.07 1022.03 1021.95 1021.91 1021.83 1021.67 1021.67 1021.79 1021.87 1021.95 1021.99 1021.95 1021.91 1021.87 1021.83 1021.99 1022.07 1021.63 1021.47 1021.55 1021.67 1021.51 1021.59 1022.39 1022.63 1022.87 1022.99 1022.91 1022.71 1022.71 1022.83 1022.87 1023.07 1023.27 1023.59 1023.75 1023.91 1024.11 1024.19 1024.27 1024.35 1024.23 1024.07 1024.03 1023.83 1023.59 1023.35 1023.27 1023.35 1023.47 1023.55
1021.59 1021.75 1021.91 1021.95 1022.11 1022.23 1022.23 1022.31 1022.31 1022.35 1022.43 1022.47 1022.51 1022.55 1022.63 1022.67 1022.67 1022.59 1022.47 1022.39 1022.23 1022.15 1022.11 1022.07 1022.03 1021.99 1021.95 1021.87 1021.79 1021.71 1021.71 1021.75 1021.79 1021.83 1021.83 1021.83 1021.83 1021.91 1021.83 1021.67 1021.63 1021.71 1021.59 1021.75 1021.75 1022.03 1022.35 1022.71 1022.99 1023.07 1022.95 1022.79 1022.59 1022.51 1022.59 1022.59 1022.79 1022.99 1023.15 1023.71 1024.27 1024.59 1024.67 1024.63 1024.63 1024.67 1024.63 1024.51 1024.27 1023.91 1023.71 1023.47 1023.47 1023.75
1021.99 1022.03 1022.19 1022.27 1022.27 1022.27 1022.31 1022.39 1022.43 1022.51 1022.63 1022.71 1022.71 1022.67 1022.67 1022.67 1022.59 1022.43 1022.35 1022.35 1022.23 1022.15 1022.15 1022.07 1022.03 1021.91 1021.87 1021.83 1021.87 1021.91 1021.99 1022.07 1022.11 1022.07 1021.91 1021.83 1021.83 1021.99 1022.19 1022.23 1022.11 1021.91 1021.71 1021.67 1022.03 1022.31 1022.39 1022.47 1022.51 1022.67 1022.79 1022.75 1022.55 1022.59 1022.91 1022.99 1022.95 1023.07 1023.19 1023.35 1024.03 1024.39 1024.55 1024.75 1024.75 1024.79 1024.83 1024.87 1024.79 1024.67 1024.59 1024.55 1024.31 1024.03
1022.39 1022.27 1022.27 1022.27 1022.27 1022.31 1022.35 1022.47 1022.55 1022.67 1022.71 1022.71 1022.67 1022.47 1022.35 1022.39 1022.43 1022.39 1022.35 1022.31 1022.31 1022.31 1022.23 1022.23 1022.19 1022.11 1022.03 1021.99 1021.91 1021.95 1022.03 1022.19 1022.23 1022.27 1022.31 1022.31 1022.23 1022.15 1022.27 1022.31 1022.27 1021.99 1021.51 1021.51 1022.03 1022.23 1022.39 1022.43 1022.59 1022.55 1022.59 1022.79 1022.83 1022.83 1023.07 1023.07 1023.07 1023.15 1023.23 1023.39 1023.35 1023.55 1023.99 1024.27 1024.59 1024.75 1024.79 1024.79 1024.83 1024.83 1024.87 1024.79 1024.79 1024.83
1022.63 1022.55 1022.47 1022.43 1022.47 1022.47 1022.55 1022.59 1022.63 1022.63 1022.67 1022.63 1022.55 1022.55 1022.55 1022.59 1022.67 1022.75 1022.75 1022.71 1022.63 1022.51 1022.43 1022.31 1022.23 1022.15 1022.15 1022.15 1022.19 1022.31 1022.35 1022.31 1022.15 1022.15 1022.15 1022.19 1022.19 1022.23 1022.15 1021.99 1022.03 1022.19 1022.35 1022.35 1022.39 1022.59 1022.55 1022.59 1022.63 1022.71 1022.79 1022.87 1022.91 1023.03 1023.03 1023.11 1023.11 1023.11 1023.23 1023.39 1023.47 1023.43 1023.35 1023.75 1024.15 1024.27 1024.43 1024.55 1024.75 1024.83 1024.79 1024.87 1024.83 1024.83
Wind_Speed
11 9 10 8 8 10 10 4 5 8 8 6 7 9 9 8 9 10 8 9 9 14 13 10 11 12 11 9 10 10 10 13 14 11 9 11 11 12 14 13 13 12 12 10 9 8 8 8 8 9 10 10 9 9 9 8 7 7 6 5 5 3 4 3 4 3 4 5 5 5 4 4 5 5
9 8 9 11 11 10 7 7 8 8 9 7 8 8 9 6 9 9 11 10 9 9 11 10 10 11 12 10 10 10 10 17 15 12 10 11 11 17 15 14 13 13 12 11 10 9 9 9 9 9 10 11 10 10 9 9 8 8 7 8 7 6 6 6 6 6 6 6 4 6 6 7 7 7
7 8 10 9 10 9 8 6 7 8 8 7 7 7 8 9 7 9 9 8 8 7 6 8 10 11 13 11 10 9 10 15 15 11 10 10 17 20 14 15 14 13 13 12 10 9 9 9 10 10 10 11 11 10 9 9 9 9 8 8 8 7 7 7 8 8 9 10 9 9 9 9 10 10
8 8 9 9 9 10 8 7 6 7 8 10 10 8 8 8 7 1 2 6 7 3 3 8 9 11 12 12 11 10 10 13 15 11 11 9 19 13 10 15 15 14 14 13 11 10 10 10 10 11 10 11 10 10 9 10 9 10 10 9 9 9 9 9 9 11 12 12 13 13 12 12 12 12
11 10 9 9 13 12 10 9 8 7 10 8 8 9 9 7 5 5 6 6 6 4 3 5 9 10 12 12 12 12 11 12 11 12 10 12 11 11 10 11 15 15 15 14 13 12 11 11 10 11 11 11 11 11 11 11 11 11 11 11 11 11 10 10 10 11 12 12 12 12 12 13 13 13
9 8 9 12 14 12 11 9 10 9 9 5 7 11 7 9 7 7 7 8 7 8 7 8 10 10 14 12 13 12 11 12 12 13 11 10 11 10 10 11 11 17 16 15 15 14 13 12 12 12 12 12 12 11 12 12 12 12 12 12 12 12 12 11 12 12 11 11 12 12 12 12 13 13
10 10 13 13 10 9 12 11 7 6 7 5 8 6 10 6 5 7 9 8 8 10 10 9 8 10 11 10 12 14 12 12 12 13 12 11 10 10 11 11 10 18 17 18 16 16 15 14 14 13 13 12 12 12 12 12 12 12 12 13 12 13 13 13 13 12 12 11 12 12 12 12 13 13
9 11 12 14 12 6 2 5 6 6 6 5 5 10 9 9 6 6 6 6 6 8 7 10 11 11 10 11 12 11 13 12 12 12 11 11 11 11 11 11 11 16 22 20 18 17 16 16 15 14 14 13 13 13 13 13 13 13 13 13 13 13 13 13 13 12 12 13 13 13 13 13 14 16
7 11 12 14 8 6 11 11 9 8 8 9 10 11 8 6 5 4 6 9 8 6 7 8 8 10 10 10 12 12 11 12 11 12 12 12 11 11 11 10 9 20 24 21 20 19 18 17 16 15 14 14 14 14 14 14 14 14 14 14 13 13 13 12 12 13 13 13 12 12 13 13 15 16
13 14 13 8 7 11 13 13 13 11 14 13 12 11 7 7 7 7 7 5 8 9 9 9 9 8 11 11 11 11 12 12 11 11 11 12 11 11 10 10 7 9 9 7 9 13 15 17 17 17 16 16 16 15 15 14 15 14 14 14 13 13 13 14 13 12 12 12 12 12 12 13 13 15
10 10 7 9 12 12 14 9 9 10 15 12 13 8 6 6 2 2 3 9 5 6 11 10 9 10 12 10 10 10 12 11 11 10 10 10 11 10 10 10 7 9 10 13 16 14 14 16 15 17 18 18 17 16 16 15 15 14 14 13 14 14 14 13 12 12 12 12 12 12 12 12 13 15
8 7 9 11 11 10 13 10 12 14 10 7 6 6 6 5 6 7 10 9 10 12 9 7 9 9 8 9 10 10 12 11 11 10 10 10 9 9 9 9 8 10 10 10 9 11 13 12 16 16 17 18 18 18 16 17 15 15 15 15 15 14 12 12 13 12 12 12 12 12 12 12 12 13
8 9 9 13 13 12 11 13 12 10 9 7 7 6 7 8 6 9 11 7 6 3 2 7 7 10 9 9 8 10 10 11 10 9 10 9 9 9 9 10 10 10 11 10 11 11 12 12 11 11 10 12 17 15 16 12 16 17 15 15 12 13 13 11 11 10 11 11 11 11 11 11 11 11
8 9 10 9 9 8 12 10 8 8 10 9 7 8 7 7 7 11 6 6 6 6 6 7 6 9 9 9 8 8 7 8 8 9 9 10 10 10 9 9 9 11 10 10 10 11 12 12 11 11 11 11 12 10 10 10 12 12 15 15 14 11 9 9 9 9 9 9 9 9 9 9 10 10
8 5 5 6 7 9 10 10 12 12 11 11 10 7 4 3 5 9 7 9 6 7 9 8 9 9 9 10 9 10 9 7 9 8 8 9 8 9 10 9 8 10 10 9 9 9 11 11 11 12 11 11 11 11 8 14 12 8 9 8 7 7 6 6 5 6 6 6 7 7 7 8 8 8
4 6 7 8 6 7 8 11 8 8 10 11 9 7 7 8 4 7 10 8 9 9 8 7 6 5 8 8 7 7 7 6 6 7 8 8 9 9 9 9 7 8 10 9 9 8 7 11 9 8 10 6 6 9 14 17 15 12 10 8 6 4 4 3 4 4 5 5 5 5 5 5 6 7
7 8 8 7 6 6 9 8 9 7 8 8 9 9 11 8 8 6 8 4 4 9 8 7 7 7 2 2 4 3 0 2 5 6 9 8 8 8 9 8 8 2 11 8 9 9 8 9 8 7 5 10 8 10 13 16 15 14 11 10 8 7 6 5 4 2 1 1 2 3 4 4 5 5
9 10 8 7 7 6 7 7 9 9 8 7 6 7 6 9 8 7 8 7 6 3 5 7 8 7 4 5 6 4 5 5 8 5 8 9 10 9 9 5 3 2 6 7 8 8 9 8 7 7 5 9 9 8 12 16 16 14 12 9 8 6 6 5 5 5 4 3 3 3 3 4 4 5
7 8 8 7 8 7 7 6 9 8 10 8 9 11 14 13 10 9 7 6 5 5 5 6 6 8 9 7 6 6 5 6 7 7 8 11 10 6 4 2 5 6 6 7 7 8 8 7 8 7 7 8 8 6 9 16 15 14 12 10 7 6 5 5 3 3 1 2 2 3 4 4 5 4
6 7 7 7 7 7 8 9 11 11 7 7 10 12 11 12 6 7 4 4 6 6 1 5 6 5 5 4 10 8 6 3 1 3 4 2 2 2 9 8 6 6 6 4 6 6 7 4 7 4 9 7 8 7 6 10 14 13 12 11 9 8 7 5 4 3 2 2 2 1 2 3 5 7
8 7 8 6 6 4 4 7 12 16 12 11 15 12 11 10 7 6 6 8 10 11 13 14 14 13 11 10 10 8 2 2 4 4 3 1 2 2 4 2 4 7 5 3 4 4 3 3 2 5 6 8 9 8 7 6 10 14 13 12 11 11 10 9 8 7 6 4 3 4 3 4 5 9
7 7 10 7 6 5 8 12 18 18 16 11 11 12 9 7 8 6 6 6 6 12 13 13 13 13 13 13 13 11 8 4 1 4 5 4 2 2 5 6 7 3 6 5 8 2 4 7 5 4 5 4 3 7 7 7 5 6 8 11 12 12 11 10 9 7 6 5 5 5 2 1 5 6
4 2 3 7 6 8 13 12 15 17 12 12 6 3 7 10 10 7 8 9 10 9 10 9 9 10 10 9 8 9 13 10 2 4 6 9 9 7 5 6 7 5 3 5 9 1 5 5 5 3 3 2 2 6 8 8 7 7 6 5 5 10 11 12 10 8 7 7 5 4 2 3 4 5
1 3 3 8 14 11 15 15 16 15 4 4 3 9 7 8 10 9 10 10 10 10 10 10 9 10 9 9 9 8 8 7 8 8 7 6 6 5 4 4 5 3 3 2 7 3 4 4 5 4 2 2 0 4 9 8 10 9 8 6 6 8 8 7 7 8 8 7 6 5 5 6 8 5
5 7 8 7 11 7 0 5 5 3 2 4 5 6 11 6 10 12 10 10 10 11 11 11 10 9 9 9 8 8 7 7 6 6 7 7 6 5 4 5 7 6 3 2 5 3 3 2 5 5 4 2 2 2 6 3 4 2 3 3 2 3 0 3 6 6 5 7 8 9 9 9 11 8
7 8 7 7 8 10 9 9 9 11 7 6 3 4 13 17 16 8 10 10 10 10 9 9 9 9 8 8 8 8 8 8 8 7 7 8 9 8 7 4 4 6 4 0 3 1 2 1 4 5 7 6 4 3 2 4 2 2 4 3 3 3 3 2 3 3 8 7 5 5 7 10 11 11
6 5 6 6 11 14 14 15 16 15 15 12 6 9 13 14 13 11 9 9 9 9 9 9 9 9 8 8 8 8 8 8 8 8 8 9 9 9 9 10 9 9 6 4 1 2 3 3 4 3 3 2 2 3 1 2 4 2 1 2 4 1 1 3 1 2 4 7 6 9 8 9 10 9
9 7 7 10 16 16 15 18 19 18 15 12 16 18 17 11 4 8 10 9 10 10 9 9 8 8 8 9 8 8 7 7 8 8 8 9 9 8 8 9 11 9 7 6 5 5 5 5 5 4 3 3 1 1 2 3 1 1 4 4 3 4 4 3 2 4 4 4 3 2 4 4 4 3
11 11 14 16 16 16 15 16 16 17 19 20 20 20 18 14 9 9 9 9 10 11 11 10 9 9 9 9 9 8 8 8 8 8 7 8 9 9 10 10 9 8 6 6 7 7 6 6 6 5 2 3 2 2 2 2 3 1 4 3 1 4 3 4 6 6 6 5 5 5 5 6 6 7
16 16 16 19 18 17 15 12 12 12 13 19 22 21 17 11 10 9 10 9 10 10 9 9 10 8 8 8 8 8 8 8 7 6 6 7 7 7 7 7 8 8 7 6 6 6 6 6 5 4 3 1 1 2 2 1 1 1 3 1 3 3 2 6 5 6 6 5 5 4 4 5 5 4
10 12 13 12 15 14 18 16 15 15 16 15 14 12 12 12 11 10 9 9 9 9 8 8 8 7 7 7 7 7 7 7 5 4 5 6 6 7 6 7 7 7 6 6 6 6 5 3 3 3 4 2 2 2 3 1 3 3 2 2 4 3 5 5 5 5 5 5 4 2 2 2 3 3
9 9 11 14 12 11 12 12 10 12 12 12 11 10 11 11 11 11 13 12 9 9 8 8 8 8 7 8 7 6 6 5 5 5 4 3 5 5 6 6 5 5 5 4 4 5 5 5 3 3 4 5 5 5 2 3 4 2 2 3 4 3 5 4 3 3 3 4 3 3 4 3 3 3
13 13 13 12 13 12 11 10 10 10 11 11 12 13 10 10 11 11 11 10 9 8 9 9 8 8 7 7 7 6 6 5 5 4 5 6 4 3 4 6 5 4 5 5 4 4 4 3 5 6 4 4 4 4 4 3 1 3 3 5 3 3 3 3 2 3 3 3 4 3 3 3 2 3
10 10 10 11 10 10 10 11 11 10 10 10 10 10 10 10 10 10 10 8 7 7 8 8 8 8 8 8 7 7 6 5 5 6 6 5 5 5 5 5 5 4 4 4 3 3 4 5 4 4 5 5 5 7 7 5 4 3 4 3 2 3 2 3 3 3 3 3 3 4 3 2 3 3
8 8 8 8 9 10 11 10 10 9 10 9 7 9 9 9 10 9 9 8 7 7 8 8 8 7 8 7 6 7 6 6 5 4 4 3 2 3 3 3 4 4 4 4 3 2 2 3 5 5 4 6 5 6 9 7 4 4 2 1 1 2 2 2 3 3 3 3 3 2 3 3 3 4
8 8 7 7 7 8 9 9 8 8 9 9 8 6 7 9 8 8 8 8 7 6 7 7 7 6 6 5 4 5 3 2 2 3 2 3 2 3 4 4 4 4 3 3 3 3 1 1 1 2 5 5 4 3 2 10 10 6 2 0 1 1 1 2 2 2 2 3 2 2 2 2 3 4
7 6 7 7 7 8 7 8 8 8 9 8 8 7 8 7 7 7 7 7 7 6 6 6 5 4 4 3 3 2 2 3 3 2 1 2 3 4 3 2 2 3 4 3 3 2 2 3 3 3 4 1 3 6 4 1 9 11 5 2 1 1 2 2 2 2 2 2 2 2 2 1 2 3
5 6 6 6 6 7 7 7 7 7 8 7 7 7 7 6 6 7 6 6 5 4 4 4 3 3 2 1 1 1 2 2 2 2 2 3 3 2 1 1 1 2 4 4 3 2 2 2 3 4 2 1 2 6 5 4 2 5 9 4 0 1 2 1 1 1 1 2 2 2 1 1 3 4
7 7 6 6 6 6 6 6 5 6 6 6 6 6 5 6 5 5 4 4 3 3 4 3 3 2 2 1 1 1 2 2 3 3 3 2 3 2 2 2 2 3 2 1 4 3 3 3 4 3 3 2 2 4 3 3 5 2 3 7 4 2 1 1 2 1 1 1 2 1 1 4 7 8
7 7 7 7 7 7 6 5 6 5 5 5 5 5 5 4 4 4 4 3 4 4 3 3 3 3 3 3 3 3 3 4 3 3 3 3 2 2 2 2 2 1 2 2 2 4 7 7 5 4 4 4 3 3 3 2 4 4 3 4 6 6 3 3 2 3 2 3 2 2 0 3 2 4
7 7 6 6 7 7 6 6 6 5 6 6 6 5 6 7 6 5 3 3 3 3 4 3 3 3 3 2 2 3 3 3 3 3 3 3 3 2 2 5 0 2 2 2 2 4 7 5 2 1 3 0 0 1 1 1 2 5 3 2 2 3 4 4 5 4 3 3 3 2 2 2 3 1
6 6 6 6 6 6 6 6 6 6 6 6 6 5 5 5 3 3 3 3 2 3 3 3 3 3 3 3 3 3 3 3 3 2 2 3 3 1 0 0 2 1 2 2 2 3 5 5 3 1 2 1 1 1 1 2 2 2 2 4 3 1 0 3 8 6 5 3 4 3 3 2 1 0
6 6 6 5 5 6 6 6 6 6 6 5 3 3 3 2 1 2 2 2 2 2 2 2 2 3 3 3 3 3 3 3 3 3 3 3 2 2 2 2 1 0 0 2 4 3 2 2 3 1 1 2 1 1 1 1 0 1 1 2 5 4 2 3 4 8 6 5 4 3 2 2 3 2
6 5 5 5 5 6 6 6 6 6 5 3 2 2 2 3 3 3 2 2 3 3 3 3 3 2 2 3 3 3 3 3 3 3 3 2 2 2 3 2 1 2 1 3 3 3 2 2 2 1 1 2 1 1 2 0 1 1 1 2 1 1 4 3 2 3 3 3 2 2 1 2 1 2
6 6 5 6 6 6 5 5 5 5 4 2 3 3 3 3 4 3 3 3 3 2 2 2 2 2 2 3 3 3 2 1 1 2 2 2 2 1 1 1 3 2 4 3 3 2 2 2 2 2 1 2 1 1 1 2 1 2 1 1 1 0 0 3 3 3 2 2 2 4 4 4 4 4
Wind_Direction
209 203 200 206 211 205 224 246 304 279 261 240 227 218 212 205 182 182 203 205 192 192 192 190 187 186 173 175 166 178 159 147 158 170 176 159 169 173 173 173 170 173 175 177 182 180 178 170 167 167 161 157 156 159 165 169 173 181 189 203 197 197 196 205 203 219 250 229 200 172 176 175 194 199
206 206 207 216 224 209 197 192 223 253 252 249 231 227 209 219 205 193 200 201 199 194 189 186 187 187 174 171 171 185 161 151 169 174 183 165 166 165 176 175 174 176 177 179 183 185 180 181 175 173 169 168 167 170 176 182 189 197 203 208 216 201 208 212 217 223 230 242 222 183 199 198 208 213
200 200 214 223 229 212 193 187 198 244 273 254 250 234 222 212 229 222 195 201 191 192 208 190 181 191 173 180 178 182 157 163 172 180 179 187 146 163 176 177 177 179 181 179 185 185 186 187 183 180 178 179 178 181 187 191 201 208 209 213 217 214 213 219 221 228 236 236 235 225 215 217 220 225
206 205 220 225 228 218 197 193 186 208 240 252 240 227 211 200 209 131 139 204 182 127 198 209 185 191 185 188 180 184 156 169 175 181 187 152 143 163 172 180 178 183 182 183 186 190 187 192 192 189 190 191 189 192 193 198 204 208 212 215 218 222 224 227 226 233 239 239 240 239 233 231 231 231
210 203 213 219 226 221 211 201 195 197 219 241 258 237 215 202 155 164 168 176 200 187 172 260 200 185 197 178 190 181 164 160 178 188 172 139 159 165 174 178 182 182 185 185 188 190 190 194 197 196 197 196 197 197 201 203 207 211 213 217 221 224 229 231 232 236 242 245 245 245 243 240 238 237
209 208 223 224 220 211 212 212 207 201 213 187 234 244 228 216 166 187 172 189 196 195 178 213 202 190 197 183 200 179 166 166 176 189 174 166 184 187 181 174 181 184 184 187 188 191 194 196 203 201 200 201 200 203 205 208 211 214 216 219 224 228 231 233 236 237 239 243 247 249 249 247 244 242
201 208 218 221 217 211 210 212 203 188 206 207 232 255 257 252 164 189 193 182 183 197 193 197 194 196 194 198 194 188 172 173 182 188 189 181 189 197 191 183 173 179 184 186 188 194 194 199 203 205 205 204 206 208 210 212 216 220 222 223 227 229 233 236 240 242 244 243 245 249 250 251 251 249
205 219 221 223 219 185 173 239 221 199 205 214 216 235 223 213 185 186 174 221 172 197 191 205 200 193 189 198 203 198 175 177 185 190 193 195 191 193 192 200 178 175 182 183 189 192 196 198 202 206 207 207 209 212 214 216 219 222 225 228 229 231 234 237 241 247 249 250 253 255 256 257 257 259
215 227 225 226 195 158 195 207 203 207 194 208 207 220 219 231 202 193 178 195 174 183 204 202 212 179 188 201 211 193 186 178 190 191 192 199 200 191 199 198 179 164 180 183 187 190 194 198 201 205 208 209 213 215 217 219 221 224 227 229 231 234 239 241 244 245 248 252 257 262 264 265 266 266
218 221 227 228 183 203 219 214 214 204 208 214 214 214 211 214 225 212 197 118 208 186 200 214 207 197 180 192 224 192 181 184 190 191 194 196 199 195 199 202 178 145 161 183 192 191 194 198 200 205 209 212 214 218 219 222 224 227 229 232 234 237 239 240 244 248 253 257 259 261 263 266 267 270
228 233 213 229 227 212 225 209 207 210 216 208 217 205 198 214 77 44 278 210 162 226 204 206 211 215 191 194 191 215 176 189 189 188 192 199 194 195 194 201 179 148 168 184 179 182 193 195 200 208 211 211 215 216 219 223 226 228 230 232 233 236 239 244 248 250 253 257 261 263 266 268 270 272
211 207 227 225 230 230 228 206 219 211 201 197 197 186 187 180 191 214 221 204 193 204 213 209 209 204 206 192 191 211 186 193 189 191 191 196 196 191 192 195 202 158 164 182 189 194 193 197 202 206 210 216 217 217 220 224 227 227 229 230 233 238 244 246 249 254 260 263 265 265 264 264 265 266
225 217 221 233 222 215 228 223 211 195 189 189 190 185 185 198 207 225 220 181 195 172 50 233 197 205 193 189 194 199 190 195 196 182 190 192 198 199 191 199 206 198 175 184 190 190 192 199 202 203 212 215 216 221 218 222 221 226 227 230 234 238 242 250 255 259 260 260 259 261 263 264 265 266
235 232 228 222 228 236 233 212 201 197 194 200 199 191 169 190 201 218 221 195 180 137 168 189 215 214 201 195 190 205 199 193 196 193 191 197 195 200 201 198 197 208 208 198 202 195 183 194 197 201 209 215 194 210 195 217 217 209 217 225 229 237 247 248 249 251 251 254 259 260 263 264 265 266
223 217 231 240 210 201 210 209 208 214 213 214 217 210 141 101 217 233 216 203 172 187 179 186 204 200 207 214 201 197 211 190 195 203 198 204 206 201 208 199 188 194 207 206 210 215 176 187 197 203 207 209 199 189 196 187 190 174 189 199 207 215 218 229 240 246 253 257 259 264 264 267 268 271
215 220 227 240 227 216 212 217 201 218 227 228 227 202 202 207 158 163 202 203 185 189 186 177 166 206 211 211 209 201 210 189 191 214 210 206 211 211 220 232 217 178 186 197 212 221 184 181 206 207 208 199 96 100 101 102 105 105 108 113 124 142 169 206 223 226 241 239 246 253 261 270 279 280
218 221 226 232 237 233 217 217 214 203 214 221 206 202 202 177 162 127 100 51 169 193 184 166 163 183 154 331 295 304 313 275 216 210 220 215 208 213 215 222 234 192 176 189 201 212 215 201 195 213 218 107 114 100 100 108 111 115 117 120 126 133 143 147 149 143 117 14 342 328 311 299 293 287
219 222 213 210 224 230 213 209 212 210 212 195 183 215 219 222 173 110 105 104 54 3 187 184 180 181 173 210 216 242 278 250 229 227 244 222 215 215 214 213 273 108 182 198 191 206 217 192 189 202 226 103 104 106 116 113 110 104 101 100 94 85 70 53 43 35 19 11 348 327 321 311 299 292
218 223 213 202 216 228 230 214 211 218 221 204 211 214 221 217 209 195 181 185 191 186 210 198 176 172 188 199 186 187 184 233 239 183 227 259 236 193 201 173 131 166 190 201 221 211 213 191 186 212 104 90 84 109 111 108 108 112 116 119 114 99 83 74 64 37 20 360 352 340 328 317 301 289
218 212 216 219 220 216 211 244 234 230 237 203 218 219 215 217 166 74 58 55 49 51 196 203 178 159 108 141 172 175 174 159 51 198 146 219 49 183 219 188 165 183 169 204 215 217 224 201 179 178 104 109 117 117 116 118 125 129 132 135 136 142 143 144 156 166 174 163 149 19 353 326 307 291
260 235 214 214 233 231 202 193 224 229 230 221 217 213 208 185 146 110 88 73 75 84 83 83 89 98 101 91 95 103 89 97 185 109 87 50 35 125 210 189 228 192 146 55 349 253 167 92 221 117 131 141 135 134 133 147 150 153 148 152 154 157 166 163 165 174 161 144 103 75 49 352 329 300
259 242 209 197 185 190 236 208 212 207 204 221 219 207 196 174 196 134 129 111 85 97 95 94 96 96 93 81 65 62 72 38 179 169 197 173 158 180 138 160 245 141 75 25 340 288 104 157 128 108 83 99 115 130 140 141 147 156 159 158 163 166 171 167 166 157 141 122 113 103 84 37 304 273
264 240 206 215 219 182 221 210 211 213 211 218 200 192 212 193 179 166 161 142 136 136 124 119 114 102 105 102 90 74 64 48 52 220 217 194 195 191 198 212 210 135 85 18 330 247 105 110 80 95 106 99 172 125 143 152 161 175 166 172 182 186 177 177 153 138 136 127 125 128 112 355 302 330
277 153 148 51 6 300 238 205 209 215 240 352 254 209 215 199 182 167 165 156 147 144 139 138 137 126 123 120 120 111 90 75 60 52 52 57 63 76 128 104 61 67 85 8 345 17 71 67 95 59 66 107 308 158 153 173 174 180 173 176 180 188 200 143 124 135 137 140 142 133 84 37 6 5
19 22 32 39 7 354 94 152 124 110 48 4 333 255 206 190 147 154 150 146 141 130 126 128 129 128 125 120 116 112 103 96 89 73 62 70 86 89 81 89 84 89 94 34 316 17 69 69 103 74 44 314 281 197 186 190 183 175 142 100 280 153 146 211 145 156 136 139 123 95 68 66 49 36
31 37 20 10 357 19 41 55 61 48 44 44 355 96 113 119 129 148 132 136 129 128 135 134 132 134 131 122 110 103 98 90 82 78 70 60 56 57 56 40 121 119 89 103 262 353 95 148 104 149 187 199 211 227 173 167 136 237 165 175 88 64 247 277 8 125 171 155 131 98 91 84 78 69
27 37 53 38 40 53 56 59 52 46 43 42 32 93 103 111 119 134 146 135 143 141 134 127 123 124 122 119 114 102 91 78 70 69 64 66 65 57 46 39 62 92 107 122 302 20 282 91 47 50 46 57 30 49 34 253 208 156 244 117 94 246 95 12 299 26 9 86 100 116 97 75 70 72
13 37 54 71 67 57 57 63 62 53 49 54 42 40 32 30 120 144 141 152 151 146 124 110 85 79 81 85 81 76 76 76 73 71 70 69 69 69 70 62 55 54 58 57 51 33 35 82 83 53 34 48 128 196 218 140 94 94 260 71 29 46 18 302 358 31 12 37 133 67 33 82 121 87
13 22 48 55 57 60 55 52 58 55 45 44 49 42 43 38 29 43 57 66 72 76 78 84 84 75 67 67 66 69 81 90 87 81 79 83 81 80 76 71 69 65 52 54 53 47 44 40 70 78 89 74 43 36 7 10 30 320 67 35 28 43 315 11 20 5 11 2 15 24 27 16 22 1
24 15 32 48 52 50 48 50 54 60 55 48 47 44 40 46 42 45 51 42 56 67 73 76 80 79 79 76 76 70 66 70 70 76 88 91 87 82 83 80 70 64 56 46 56 60 60 57 61 46 28 113 61 24 51 354 251 240 104 144 50 304 254 39 17 18 15 1 357 32 40 67 68 9
32 20 14 39 50 57 55 52 55 57 55 50 44 49 44 44 42 41 53 59 63 63 68 74 73 70 65 68 68 64 57 51 43 81 101 99 102 103 95 91 86 78 69 63 48 40 61 68 50 30 13 23 160 146 73 325 275 244 211 47 45 343 27 25 18 26 22 341 333 27 17 78 120 73
13 28 27 28 30 33 42 40 39 50 55 54 51 45 46 45 42 46 53 56 55 52 56 68 71 68 64 62 61 60 57 47 32 20 41 77 103 104 106 98 98 102 105 103 98 71 45 26 360 72 57 34 25 34 40 251 265 12 42 51 15 358 58 36 7 13 7 321 317 15 27 27 18 39
26 23 26 27 29 28 31 34 31 35 48 55 51 48 43 48 50 45 35 44 45 42 48 48 53 65 71 71 62 64 63 50 34 6 43 34 44 71 100 102 111 105 97 90 88 99 77 58 34 36 64 58 37 15 350 329 352 80 34 34 22 335 30 48 31 356 338 330 340 348 49 34 22 32
43 31 32 26 27 29 32 32 32 31 38 46 49 43 42 47 51 51 49 44 44 45 52 50 49 47 54 56 52 54 55 47 41 30 36 34 27 51 62 70 74 82 91 92 91 93 138 134 117 116 90 77 67 42 15 1 2 28 42 43 32 318 23 38 15 353 335 334 357 340 335 53 43 29
34 33 32 26 26 25 36 40 32 30 36 36 36 42 39 35 42 46 48 38 36 42 47 47 45 44 44 43 38 45 42 47 43 44 52 64 54 82 96 104 105 100 100 107 109 132 154 172 174 147 172 141 109 82 50 25 351 23 28 27 39 5 345 22 325 331 333 333 18 0 335 338 34 46
33 31 33 32 29 23 30 29 29 33 37 35 41 40 47 45 37 44 50 49 50 51 56 59 58 54 49 43 34 34 38 44 59 53 49 50 37 56 72 85 102 100 102 105 98 85 55 10 339 216 172 161 132 119 86 18 22 350 0 291 25 20 348 334 309 313 325 355 10 8 5 342 355 27
35 31 30 35 30 31 34 31 34 37 39 42 41 44 50 52 43 49 58 56 56 56 61 69 67 64 62 55 54 41 35 43 49 40 45 75 84 86 85 66 65 111 101 75 84 68 50 46 33 15 346 329 190 143 128 123 29 19 17 46 331 329 6 333 342 339 349 15 354 30 13 1 353 50
40 36 34 32 34 34 36 36 38 44 43 41 45 48 53 55 58 61 65 67 72 72 68 72 79 86 109 128 106 82 76 70 54 36 52 55 51 58 70 83 99 96 101 110 85 98 92 58 57 29 15 355 349 126 136 131 105 41 12 4 57 355 340 350 322 26 345 330 45 360 24 357 39 78
37 45 44 45 47 43 40 42 42 47 49 47 48 53 58 63 63 65 60 59 58 69 65 62 67 71 71 53 51 78 95 90 79 67 55 61 74 76 66 72 67 43 53 140 126 83 68 54 43 30 30 7 33 25 18 102 111 110 41 30 37 335 7 17 338 321 29 20 6 281 211 108 82 101
36 40 45 47 50 57 65 62 59 57 60 62 64 63 63 62 65 65 60 53 58 65 71 71 79 85 82 85 90 83 69 58 58 66 66 63 63 66 64 61 87 94 62 25 9 100 76 60 33 6 17 37 11 357 10 22 109 108 105 59 49 42 12 348 3 346 10 18 344 293 191 168 183 168
36 39 47 49 53 55 61 65 65 68 70 71 65 57 56 49 46 51 57 63 63 64 65 59 53 54 65 69 83 91 90 93 87 82 83 79 75 65 16 321 78 91 94 69 37 69 79 73 69 2 308 304 120 230 241 202 161 146 137 121 65 73 64 19 3 3 5 350 333 325 331 25 13 75
33 44 47 53 59 61 61 65 66 65 63 55 57 60 66 70 62 58 62 65 90 93 91 86 87 82 73 65 58 57 65 77 94 114 128 121 110 93 285 264 90 50 112 134 103 68 90 117 130 163 247 302 268 218 67 59 89 75 98 139 139 85 102 69 74 54 36 12 356 359 1 352 53 351
36 50 56 63 68 72 69 67 71 68 67 70 78 90 98 108 134 106 78 78 77 77 79 76 60 55 62 70 76 82 84 80 71 63 51 61 77 84 61 60 41 101 105 80 86 102 100 123 144 171 235 239 69 48 81 84 68 118 137 135 146 163 152 165 117 103 86 59 36 32 4 349 334 3
43 52 61 68 71 71 73 73 77 84 86 85 93 89 80 82 80 84 89 78 68 67 67 69 73 76 69 57 62 77 93 96 90 80 77 65 48 73 116 108 33 348 328 87 71 72 80 95 77 36 98 80 80 67 90 157 116 72 84 62 43 138 156 158 131 130 126 110 69 53 331 334 223 192
37 44 51 55 59 68 75 82 80 82 85 80 73 71 69 59 58 58 58 63 72 69 74 64 60 78 93 106 99 96 94 164 161 147 160 162 150 118 36 177 143 89 49 49 97 91 88 93 92 88 96 105 91 115 92 52 52 83 68 80 126 111 57 152 170 154 125 103 199 198 225 213 206 218